Погода в Ревали

Польша     54°04′43″N   15°00′41″E
темп.,
°C
ветер,
м/с
пор.,
м/с
влажн.,
%
обл.,
%
осадки,
мм/ч
давл.,
гПа
погр.,
м
27 ноября, сб
сб2701:00+4юв3568100 0.0 993324
04:00+3вюв3576100 0.1 993351
07:00+3вюв458447 0.1 993221
10:00+3юв358424 0.0 994317
13:00+4юв45706 0.0 994723
16:00+3вюв4579100 0.0 995227
19:00+2ююв4786100 0.1 996431
22:00+2юв4798100 0.7 996310
28 ноября, вс
вс2801:00+2ююв5997100 0.9 996368
04:00+2ю4691100 0.1 995341
07:00+2ююз4695100 0.1 996485
10:00+3ююз5676100 0.1 997809
13:00+4ююз567092 0.1 997863
16:00+2ююв338080 0.0 997225
19:000ю338789 0.0 99893
22:000юв238894 0.0 99865
29 ноября, пн
пн2901:000в1185100 0.0 99856
04:00+1с1183100 0.0 998109
07:00+3сз4675100 0.0 998304
10:00+5ссз5769100 0.1 999767
13:00+5ссв71070100 1.2 999936
16:00+5с81071100 0.1 1001800
19:00+4с71067100 0.3 1003868
22:00+3ссз687050 0.2 1004716
30 ноября, вт
вт3001:00+3сз696699 0.3 1004525
04:00+3зсз7968100 0.1 1004914
07:00+1зюз7119164 0.3 1003647
10:00+1ююз9158876 0.0 999732
13:00+2юз122096100 2.5 9941129
16:00+4зюз111793100 1.4 9911258
19:00+5з131880100 1.8 9901212
22:00+4сз121583100 0.4 9931251
1 декабря, ср
ср101:00+3сз10127794 0.9 9991048
04:00+3сз5768100 0.1 1001613
07:00+2ююз3582100 0.1 1001295
10:00+1ююв51099100 1.1 998324
13:00+2ююв91698100 7.6 992505
16:00+6юз91695100 4.4 9881062
19:00+7юз101990100 6.1 9851110
22:00+7юз122089100 0.9 9821280